PRIVATE WETTERSTATION BILLIGHEIM-ALLFELD                       ZURCK
Wetterdaten: Freitag, 21.03.2014
Datum Zeit Temp. A. Temp. A. min Temp. A. max Feuchte A. Luftdruck Regen Wind Richtung Richtung Sonnenschein ET Solar Taupunkt Windchill Windben Empfang
21.03.2014 00:00 13,1 C 13,1 C 13,2 C 51 % 1012,9 hPa 0,0 l/m 6,4 km/h (2 Bft) S 180 0 min 0,076 mm 0 W/m 3,2 C 13,1 C 16,1 km/h (3 Bft) 100 %
21.03.2014 00:10 12,9 C 12,9 C 13,1 C 52 % 1012,8 hPa 0,0 l/m 4,8 km/h (1 Bft) S 180 0 min 0,000 mm 0 W/m 3,3 C 12,9 C 14,5 km/h (3 Bft) 100 %
21.03.2014 00:20 12,3 C 12,3 C 12,9 C 53 % 1012,8 hPa 0,0 l/m 3,2 km/h (1 Bft) S-SO 157 0 min 0,000 mm 0 W/m 3,0 C 12,3 C 11,3 km/h (2 Bft) 100 %
21.03.2014 00:30 12,1 C 12,1 C 12,3 C 54 % 1012,8 hPa 0,0 l/m 3,2 km/h (1 Bft) S 180 0 min 0,000 mm 0 W/m 3,1 C 12,1 C 12,9 km/h (3 Bft) 100 %
21.03.2014 00:40 11,8 C 11,8 C 12,1 C 56 % 1012,7 hPa 0,0 l/m 3,2 km/h (1 Bft) S 180 0 min 0,000 mm 0 W/m 3,3 C 11,8 C 9,7 km/h (2 Bft) 100 %
21.03.2014 00:50 11,5 C 11,5 C 11,8 C 56 % 1012,8 hPa 0,0 l/m 3,2 km/h (1 Bft) S-SO 157 0 min 0,000 mm 0 W/m 3,0 C 11,5 C 9,7 km/h (2 Bft) 100 %
21.03.2014 01:00 11,3 C 11,2 C 11,5 C 58 % 1012,8 hPa 0,0 l/m 3,2 km/h (1 Bft) S 180 0 min 0,051 mm 0 W/m 3,3 C 11,3 C 14,5 km/h (3 Bft) 100 %
21.03.2014 01:10 11,6 C 11,3 C 11,6 C 57 % 1012,7 hPa 0,0 l/m 6,4 km/h (2 Bft) S-SO 157 0 min 0,000 mm 0 W/m 3,4 C 11,6 C 17,7 km/h (3 Bft) 100 %
21.03.2014 01:20 11,9 C 11,6 C 11,9 C 56 % 1012,7 hPa 0,0 l/m 6,4 km/h (2 Bft) S-SO 157 0 min 0,000 mm 0 W/m 3,4 C 11,9 C 16,1 km/h (3 Bft) 100 %
21.03.2014 01:30 12,0 C 11,9 C 12,0 C 56 % 1012,7 hPa 0,0 l/m 4,8 km/h (1 Bft) S-SO 157 0 min 0,000 mm 0 W/m 3,5 C 12,0 C 9,7 km/h (2 Bft) 100 %
21.03.2014 01:40 11,8 C 11,8 C 12,0 C 57 % 1012,7 hPa 0,0 l/m 3,2 km/h (1 Bft) S-SO 157 0 min 0,000 mm 0 W/m 3,6 C 11,8 C 11,3 km/h (2 Bft) 100 %
21.03.2014 01:50 12,0 C 11,8 C 12,0 C 56 % 1012,6 hPa 0,0 l/m 6,4 km/h (2 Bft) S-SO 157 0 min 0,000 mm 0 W/m 3,5 C 12,0 C 16,1 km/h (3 Bft) 100 %
21.03.2014 02:00 12,1 C 12,0 C 12,1 C 56 % 1012,5 hPa 0,0 l/m 8,0 km/h (2 Bft) S-SO 157 0 min 0,051 mm 0 W/m 3,6 C 11,1 C 16,1 km/h (3 Bft) 100 %
21.03.2014 02:10 11,9 C 11,9 C 12,1 C 57 % 1012,5 hPa 0,0 l/m 8,0 km/h (2 Bft) S-SO 157 0 min 0,000 mm 0 W/m 3,7 C 10,8 C 19,3 km/h (3 Bft) 100 %
21.03.2014 02:20 11,7 C 11,7 C 11,9 C 58 % 1012,4 hPa 0,0 l/m 6,4 km/h (2 Bft) S 180 0 min 0,000 mm 0 W/m 3,7 C 11,7 C 17,7 km/h (3 Bft) 100 %
21.03.2014 02:30 11,6 C 11,6 C 11,7 C 58 % 1012,4 hPa 0,0 l/m 8,0 km/h (2 Bft) S 180 0 min 0,000 mm 0 W/m 3,6 C 10,5 C 17,7 km/h (3 Bft) 100 %
21.03.2014 02:40 11,4 C 11,3 C 11,6 C 59 % 1012,3 hPa 0,0 l/m 8,0 km/h (2 Bft) S-SO 157 0 min 0,000 mm 0 W/m 3,7 C 10,3 C 14,5 km/h (3 Bft) 100 %
21.03.2014 02:50 11,4 C 11,4 C 11,4 C 59 % 1012,3 hPa 0,0 l/m 8,0 km/h (2 Bft) S-SO 157 0 min 0,000 mm 0 W/m 3,7 C 10,3 C 17,7 km/h (3 Bft) 100 %
21.03.2014 03:00 11,4 C 11,4 C 11,5 C 59 % 1012,2 hPa 0,0 l/m 8,0 km/h (2 Bft) S-SO 157 0 min 0,051 mm 0 W/m 3,7 C 10,3 C 17,7 km/h (3 Bft) 100 %
21.03.2014 03:10 11,2 C 11,2 C 11,4 C 60 % 1012,2 hPa 0,0 l/m 6,4 km/h (2 Bft) S-SO 157 0 min 0,000 mm 0 W/m 3,7 C 11,2 C 19,3 km/h (3 Bft) 100 %
21.03.2014 03:20 11,1 C 11,0 C 11,2 C 61 % 1012,1 hPa 0,0 l/m 6,4 km/h (2 Bft) S 180 0 min 0,000 mm 0 W/m 3,9 C 11,1 C 17,7 km/h (3 Bft) 99 %
21.03.2014 03:30 11,0 C 11,0 C 11,1 C 61 % 1012,1 hPa 0,0 l/m 4,8 km/h (1 Bft) S-SO 157 0 min 0,000 mm 0 W/m 3,8 C 11,0 C 17,7 km/h (3 Bft) 100 %
21.03.2014 03:40 10,8 C 10,8 C 11,1 C 62 % 1012,2 hPa 0,0 l/m 4,8 km/h (1 Bft) S 180 0 min 0,000 mm 0 W/m 3,8 C 10,8 C 16,1 km/h (3 Bft) 100 %
21.03.2014 03:50 10,6 C 10,5 C 10,8 C 63 % 1012,1 hPa 0,0 l/m 4,8 km/h (1 Bft) S-SO 157 0 min 0,000 mm 0 W/m 3,9 C 10,6 C 11,3 km/h (2 Bft) 100 %
21.03.2014 04:00 10,8 C 10,6 C 10,8 C 62 % 1012,1 hPa 0,0 l/m 8,0 km/h (2 Bft) S-SO 157 0 min 0,051 mm 0 W/m 3,8 C 9,7 C 20,9 km/h (4 Bft) 100 %
21.03.2014 04:10 10,9 C 10,8 C 10,9 C 62 % 1012,2 hPa 0,0 l/m 8,0 km/h (2 Bft) S 180 0 min 0,000 mm 0 W/m 3,9 C 9,8 C 19,3 km/h (3 Bft) 100 %
21.03.2014 04:20 10,7 C 10,7 C 10,9 C 63 % 1012,1 hPa 0,0 l/m 8,0 km/h (2 Bft) S 180 0 min 0,000 mm 0 W/m 3,9 C 9,6 C 16,1 km/h (3 Bft) 100 %
21.03.2014 04:30 10,5 C 10,5 C 10,7 C 63 % 1012,1 hPa 0,0 l/m 6,4 km/h (2 Bft) S 180 0 min 0,000 mm 0 W/m 3,8 C 10,5 C 19,3 km/h (3 Bft) 100 %
21.03.2014 04:40 10,5 C 10,4 C 10,6 C 64 % 1012,0 hPa 0,0 l/m 6,4 km/h (2 Bft) S 180 0 min 0,000 mm 0 W/m 4,0 C 10,5 C 16,1 km/h (3 Bft) 100 %
21.03.2014 04:50 10,4 C 10,4 C 10,5 C 64 % 1012,0 hPa 0,0 l/m 6,4 km/h (2 Bft) S-SO 157 0 min 0,000 mm 0 W/m 3,9 C 10,4 C 16,1 km/h (3 Bft) 100 %
21.03.2014 05:00 10,3 C 10,3 C 10,4 C 63 % 1012,0 hPa 0,0 l/m 6,4 km/h (2 Bft) S-SO 157 0 min 0,051 mm 0 W/m 3,6 C 10,3 C 16,1 km/h (3 Bft) 100 %
21.03.2014 05:10 10,3 C 10,3 C 10,4 C 63 % 1012,0 hPa 0,0 l/m 9,7 km/h (2 Bft) S-SO 157 0 min 0,000 mm 0 W/m 3,6 C 8,1 C 17,7 km/h (3 Bft) 100 %
21.03.2014 05:20 10,2 C 10,2 C 10,4 C 64 % 1012,0 hPa 0,0 l/m 8,0 km/h (2 Bft) S-SO 157 0 min 0,000 mm 0 W/m 3,7 C 9,1 C 16,1 km/h (3 Bft) 100 %
21.03.2014 05:30 10,1 C 10,1 C 10,2 C 64 % 1012,0 hPa 0,0 l/m 6,4 km/h (2 Bft) S-SO 157 0 min 0,000 mm 0 W/m 3,6 C 10,1 C 14,5 km/h (3 Bft) 100 %
21.03.2014 05:40 10,0 C 10,0 C 10,1 C 65 % 1011,9 hPa 0,0 l/m 4,8 km/h (1 Bft) S-SO 157 0 min 0,000 mm 0 W/m 3,7 C 10,0 C 14,5 km/h (3 Bft) 100 %
21.03.2014 05:50 9,8 C 9,8 C 10,0 C 65 % 1012,0 hPa 0,0 l/m 4,8 km/h (1 Bft) S 180 0 min 0,000 mm 0 W/m 3,5 C 9,8 C 14,5 km/h (3 Bft) 100 %
21.03.2014 06:00 9,9 C 9,7 C 9,9 C 65 % 1011,9 hPa 0,0 l/m 6,4 km/h (2 Bft) S-SO 157 0 min 0,051 mm 0 W/m 3,6 C 9,9 C 14,5 km/h (3 Bft) 100 %
21.03.2014 06:10 10,0 C 9,9 C 10,0 C 65 % 1011,8 hPa 0,0 l/m 6,4 km/h (2 Bft) S-SO 157 0 min 0,000 mm 0 W/m 3,7 C 10,0 C 14,5 km/h (3 Bft) 100 %
21.03.2014 06:20 10,1 C 10,0 C 10,1 C 65 % 1011,8 hPa 0,0 l/m 8,0 km/h (2 Bft) S-SO 157 0 min 0,000 mm 0 W/m 3,8 C 9,0 C 19,3 km/h (3 Bft) 100 %
21.03.2014 06:30 10,0 C 10,0 C 10,1 C 66 % 1011,7 hPa 0,0 l/m 9,7 km/h (2 Bft) S-SO 157 0 min 0,000 mm 5 W/m 3,9 C 7,8 C 17,7 km/h (3 Bft) 100 %
21.03.2014 06:40 10,1 C 9,9 C 10,1 C 66 % 1011,7 hPa 0,0 l/m 9,7 km/h (2 Bft) S-SO 157 0 min 0,000 mm 12 W/m 4,0 C 7,9 C 17,7 km/h (3 Bft) 100 %
21.03.2014 06:50 10,0 C 10,0 C 10,1 C 67 % 1011,8 hPa 0,0 l/m 8,0 km/h (2 Bft) S-SO 157 0 min 0,000 mm 16 W/m 4,2 C 8,9 C 17,7 km/h (3 Bft) 100 %
21.03.2014 07:00 10,2 C 10,0 C 10,2 C 67 % 1011,7 hPa 0,0 l/m 9,7 km/h (2 Bft) S-SO 157 0 min 0,025 mm 21 W/m 4,4 C 8,0 C 17,7 km/h (3 Bft) 100 %
21.03.2014 07:10 10,3 C 10,2 C 10,3 C 67 % 1011,8 hPa 0,0 l/m 9,7 km/h (2 Bft) S-SO 157 0 min 0,000 mm 28 W/m 4,4 C 8,1 C 19,3 km/h (3 Bft) 100 %
21.03.2014 07:20 10,6 C 10,3 C 10,6 C 67 % 1011,7 hPa 0,0 l/m 12,9 km/h (3 Bft) S-SO 157 0 min 0,000 mm 33 W/m 4,7 C 6,8 C 20,9 km/h (4 Bft) 100 %
21.03.2014 07:30 10,7 C 10,6 C 10,7 C 68 % 1011,7 hPa 0,0 l/m 11,3 km/h (2 Bft) S-SO 157 0 min 0,000 mm 33 W/m 5,0 C 7,7 C 24,1 km/h (4 Bft) 100 %
21.03.2014 07:40 10,8 C 10,7 C 10,8 C 68 % 1011,7 hPa 0,0 l/m 9,7 km/h (2 Bft) S 180 0 min 0,000 mm 44 W/m 5,1 C 8,6 C 22,5 km/h (4 Bft) 100 %
21.03.2014 07:50 11,1 C 10,8 C 11,1 C 68 % 1011,6 hPa 0,0 l/m 9,7 km/h (2 Bft) S 180 10 min 0,000 mm 172 W/m 5,4 C 9,0 C 20,9 km/h (4 Bft) 100 %
21.03.2014 08:00 11,6 C 11,1 C 11,6 C 67 % 1011,5 hPa 0,0 l/m 8,0 km/h (2 Bft) S 180 10 min 0,076 mm 202 W/m 5,7 C 10,5 C 19,3 km/h (3 Bft) 100 %
21.03.2014 08:10 12,1 C 11,6 C 12,1 C 65 % 1011,5 hPa 0,0 l/m 8,0 km/h (2 Bft) S 180 10 min 0,000 mm 227 W/m 5,7 C 11,1 C 17,7 km/h (3 Bft) 100 %
21.03.2014 08:20 12,6 C 12,1 C 12,6 C 64 % 1011,6 hPa 0,0 l/m 8,0 km/h (2 Bft) S 180 10 min 0,000 mm 255 W/m 6,0 C 11,6 C 20,9 km/h (4 Bft) 100 %
21.03.2014 08:30 13,1 C 12,6 C 13,1 C 63 % 1011,5 hPa 0,0 l/m 11,3 km/h (2 Bft) S-SW 202 10 min 0,000 mm 279 W/m 6,2 C 10,4 C 22,5 km/h (4 Bft) 99 %
21.03.2014 08:40 13,6 C 13,1 C 13,6 C 63 % 1011,4 hPa 0,0 l/m 11,3 km/h (2 Bft) S-SW 202 10 min 0,000 mm 304 W/m 6,7 C 11,0 C 20,9 km/h (4 Bft) 100 %
21.03.2014 08:50 14,1 C 13,6 C 14,1 C 60 % 1011,5 hPa 0,0 l/m 11,3 km/h (2 Bft) S-SW 202 10 min 0,000 mm 329 W/m 6,5 C 11,5 C 22,5 km/h (4 Bft) 100 %
21.03.2014 09:00 14,6 C 13,6 C 14,6 C 60 % 1011,5 hPa 0,0 l/m 10,3 km/h (2 Bft) S-SW 197 10 min 0,101 mm 357 W/m 6,9 C 12,5 C 22,5 km/h (4 Bft) 100 %
21.03.2014 09:10 15,1 C 14,6 C 15,1 C 59 % 1011,5 hPa 0,0 l/m 12,9 km/h (3 Bft) S-SW 199 10 min 0,000 mm 381 W/m 7,1 C 12,0 C 27,4 km/h (4 Bft) 100 %
21.03.2014 09:20 15,4 C 15,1 C 15,4 C 56 % 1011,3 hPa 0,0 l/m 13,6 km/h (3 Bft) SW 228 10 min 0,000 mm 403 W/m 6,7 C 12,1 C 24,1 km/h (4 Bft) 100 %
21.03.2014 09:30 15,8 C 15,4 C 15,8 C 56 % 1011,3 hPa 0,0 l/m 16,8 km/h (3 Bft) S-SW 209 10 min 0,000 mm 422 W/m 7,0 C 11,6 C 32,2 km/h (5 Bft) 100 %
21.03.2014 09:40 16,2 C 15,8 C 16,2 C 54 % 1011,4 hPa 0,0 l/m 14,3 km/h (3 Bft) SW 221 10 min 0,000 mm 439 W/m 6,9 C 12,9 C 25,7 km/h (4 Bft) 100 %
21.03.2014 09:50 16,6 C 16,2 C 16,6 C 52 % 1011,2 hPa 0,0 l/m 14,0 km/h (3 Bft) S-SW 209 10 min 0,000 mm 441 W/m 6,7 C 13,4 C 29,0 km/h (5 Bft) 100 %
21.03.2014 10:00 17,2 C 16,6 C 17,2 C 49 % 1011,0 hPa 0,0 l/m 14,9 km/h (3 Bft) S-SW 193 10 min 0,305 mm 494 W/m 6,4 C 13,9 C 32,2 km/h (5 Bft) 100 %
21.03.2014 10:10 17,5 C 17,2 C 17,5 C 47 % 1011,0 hPa 0,0 l/m 17,6 km/h (3 Bft) SW 221 10 min 0,000 mm 490 W/m 6,1 C 13,5 C 30,6 km/h (5 Bft) 100 %
21.03.2014 10:20 17,9 C 17,5 C 17,9 C 47 % 1011,0 hPa 0,0 l/m 14,8 km/h (3 Bft) W 267 10 min 0,000 mm 508 W/m 6,4 C 14,8 C 30,6 km/h (5 Bft) 100 %
21.03.2014 10:30 18,1 C 17,9 C 18,1 C 46 % 1011,0 hPa 0,0 l/m 18,0 km/h (3 Bft) W-SW 250 10 min 0,000 mm 522 W/m 6,3 C 14,2 C 38,6 km/h (5 Bft) 100 %
21.03.2014 10:40 18,4 C 18,1 C 18,4 C 47 % 1010,9 hPa 0,0 l/m 15,8 km/h (3 Bft) S 190 10 min 0,000 mm 541 W/m 6,9 C 15,1 C 35,4 km/h (5 Bft) 100 %
21.03.2014 10:50 18,4 C 18,3 C 18,4 C 45 % 1010,9 hPa 0,0 l/m 26,8 km/h (4 Bft) W 263 10 min 0,000 mm 563 W/m 6,3 C 12,9 C 46,7 km/h (6 Bft) 100 %
21.03.2014 11:00 18,5 C 18,3 C 18,5 C 46 % 1010,8 hPa 0,0 l/m 22,6 km/h (4 Bft) W-SW 246 10 min 0,432 mm 563 W/m 6,7 C 13,8 C 48,3 km/h (6 Bft) 100 %
21.03.2014 11:10 18,8 C 18,5 C 18,8 C 46 % 1010,8 hPa 0,0 l/m 20,5 km/h (4 Bft) W 263 10 min 0,000 mm 559 W/m 6,9 C 14,6 C 45,1 km/h (6 Bft) 100 %
21.03.2014 11:20 18,7 C 18,7 C 18,8 C 47 % 1010,5 hPa 0,0 l/m 23,5 km/h (4 Bft) SW 234 10 min 0,000 mm 584 W/m 7,2 C 13,9 C 43,5 km/h (6 Bft) 100 %
21.03.2014 11:30 18,6 C 18,6 C 18,7 C 45 % 1010,5 hPa 0,0 l/m 28,4 km/h (4 Bft) W-SW 248 10 min 0,000 mm 578 W/m 6,4 C 13,0 C 48,3 km/h (6 Bft) 100 %
21.03.2014 11:40 18,7 C 18,6 C 18,7 C 46 % 1010,3 hPa 0,0 l/m 26,9 km/h (4 Bft) S-SW 211 10 min 0,000 mm 605 W/m 6,8 C 13,3 C 49,9 km/h (6 Bft) 100 %
21.03.2014 11:50 18,7 C 18,7 C 18,8 C 45 % 1010,2 hPa 0,0 l/m 30,8 km/h (5 Bft) S-SW 209 10 min 0,000 mm 601 W/m 6,5 C 12,8 C 48,3 km/h (6 Bft) 100 %
21.03.2014 12:00 18,9 C 18,7 C 18,9 C 45 % 1010,3 hPa 0,0 l/m 28,1 km/h (4 Bft) SW 229 10 min 0,508 mm 610 W/m 6,7 C 13,4 C 53,1 km/h (7 Bft) 100 %
21.03.2014 12:10 19,1 C 18,9 C 19,1 C 44 % 1010,2 hPa 0,0 l/m 23,8 km/h (4 Bft) SW 232 10 min 0,000 mm 608 W/m 6,6 C 14,4 C 45,1 km/h (6 Bft) 100 %
21.03.2014 12:20 19,2 C 19,1 C 19,2 C 43 % 1010,3 hPa 0,0 l/m 24,4 km/h (4 Bft) SW 217 10 min 0,000 mm 615 W/m 6,3 C 14,4 C 49,9 km/h (6 Bft) 100 %
21.03.2014 12:30 19,2 C 19,2 C 19,2 C 42 % 1010,2 hPa 0,0 l/m 32,1 km/h (5 Bft) SW 232 10 min 0,000 mm 615 W/m 6,0 C 13,3 C 54,7 km/h (7 Bft) 100 %
21.03.2014 12:40 19,2 C 19,2 C 19,2 C 41 % 1010,2 hPa 0,0 l/m 25,6 km/h (4 Bft) SW 219 10 min 0,000 mm 613 W/m 5,6 C 14,2 C 48,3 km/h (6 Bft) 100 %
21.03.2014 12:50 19,2 C 19,1 C 19,2 C 42 % 1010,1 hPa 0,0 l/m 28,4 km/h (4 Bft) W-SW 254 10 min 0,000 mm 592 W/m 6,0 C 13,8 C 46,7 km/h (6 Bft) 100 %
21.03.2014 13:00 19,2 C 19,1 C 19,2 C 43 % 1010,0 hPa 0,0 l/m 24,6 km/h (4 Bft) S-SW 211 10 min 0,000 mm 612 W/m 6,3 C 14,4 C 51,5 km/h (7 Bft) 100 %
21.03.2014 13:10 19,2 C 19,2 C 19,2 C 44 % 1010,1 hPa 0,0 l/m 28,2 km/h (4 Bft) SW 223 10 min 0,559 mm 596 W/m 6,7 C 13,8 C 49,9 km/h (6 Bft) 100 %
21.03.2014 13:20 19,3 C 19,2 C 19,3 C 44 % 1009,8 hPa 0,0 l/m 22,5 km/h (4 Bft) SW 219 10 min 0,000 mm 680 W/m 6,7 C 14,8 C 38,6 km/h (5 Bft) 100 %
21.03.2014 13:30 19,7 C 19,3 C 19,7 C 43 % 1009,6 hPa 0,0 l/m 15,1 km/h (3 Bft) W 274 10 min 0,000 mm 322 W/m 6,8 C 16,9 C 33,8 km/h (5 Bft) 100 %
21.03.2014 13:40 19,9 C 19,7 C 19,9 C 43 % 1009,4 hPa 0,0 l/m 18,6 km/h (3 Bft) SW 235 0 min 0,000 mm 151 W/m 6,9 C 16,3 C 32,2 km/h (5 Bft) 100 %
21.03.2014 13:50 19,6 C 19,6 C 19,9 C 42 % 1009,4 hPa 0,0 l/m 24,2 km/h (4 Bft) W 259 10 min 0,000 mm 608 W/m 6,3 C 15,0 C 49,9 km/h (6 Bft) 100 %
21.03.2014 14:00 19,7 C 19,5 C 19,7 C 43 % 1009,4 hPa 0,0 l/m 25,8 km/h (4 Bft) SW 227 10 min 0,482 mm 635 W/m 6,8 C 14,9 C 46,7 km/h (6 Bft) 100 %
21.03.2014 14:10 19,4 C 19,4 C 19,8 C 42 % 1009,5 hPa 0,0 l/m 24,0 km/h (4 Bft) S 178 10 min 0,000 mm 162 W/m 6,2 C 14,7 C 46,7 km/h (6 Bft) 100 %
21.03.2014 14:20 19,0 C 19,0 C 19,4 C 42 % 1009,7 hPa 0,0 l/m 20,1 km/h (4 Bft) NW 324 10 min 0,000 mm 190 W/m 5,8 C 14,9 C 37,0 km/h (5 Bft) 100 %
21.03.2014 14:30 19,1 C 18,9 C 19,1 C 41 % 1009,9 hPa 0,0 l/m 23,3 km/h (4 Bft) W-SW 248 10 min 0,000 mm 589 W/m 5,5 C 14,4 C 43,5 km/h (6 Bft) 100 %
21.03.2014 14:40 18,8 C 18,8 C 19,2 C 39 % 1009,8 hPa 0,0 l/m 25,0 km/h (4 Bft) S-SW 194 0 min 0,000 mm 121 W/m 4,6 C 13,8 C 48,3 km/h (6 Bft) 100 %
21.03.2014 14:50 18,3 C 18,3 C 18,8 C 40 % 1009,9 hPa 0,0 l/m 22,3 km/h (4 Bft) W 263 10 min 0,000 mm 153 W/m 4,5 C 13,6 C 41,8 km/h (6 Bft) 100 %
21.03.2014 15:00 17,9 C 17,9 C 18,3 C 41 % 1009,9 hPa 0,0 l/m 23,0 km/h (4 Bft) SW 232 0 min 0,330 mm 148 W/m 4,5 C 12,9 C 51,5 km/h (7 Bft) 100 %
21.03.2014 15:10 17,8 C 17,8 C 17,9 C 42 % 1010,0 hPa 0,0 l/m 21,7 km/h (4 Bft) W-SW 251 0 min 0,000 mm 116 W/m 4,7 C 13,0 C 40,2 km/h (6 Bft) 100 %
21.03.2014 15:20 17,6 C 17,6 C 17,8 C 43 % 1010,0 hPa 0,0 l/m 16,8 km/h (3 Bft) W 265 0 min 0,000 mm 102 W/m 4,9 C 13,9 C 35,4 km/h (5 Bft) 100 %
21.03.2014 15:30 17,3 C 17,3 C 17,6 C 44 % 1010,0 hPa 0,0 l/m 19,6 km/h (3 Bft) W 267 0 min 0,000 mm 91 W/m 4,9 C 12,8 C 37,0 km/h (5 Bft) 100 %
21.03.2014 15:40 17,1 C 17,1 C 17,3 C 45 % 1010,0 hPa 0,0 l/m 17,7 km/h (3 Bft) S 190 0 min 0,000 mm 54 W/m 5,1 C 13,0 C 32,2 km/h (5 Bft) 100 %
21.03.2014 15:50 16,8 C 16,8 C 17,1 C 47 % 1010,0 hPa 0,0 l/m 19,9 km/h (4 Bft) SW 228 0 min 0,000 mm 128 W/m 5,4 C 12,1 C 37,0 km/h (5 Bft) 100 %
21.03.2014 16:00 16,4 C 16,4 C 16,9 C 50 % 1010,1 hPa 0,0 l/m 25,3 km/h (4 Bft) SW 215 0 min 0,229 mm 113 W/m 6,0 C 10,4 C 46,7 km/h (6 Bft) 100 %
21.03.2014 16:10 15,9 C 15,9 C 16,4 C 54 % 1010,3 hPa 0,0 l/m 24,3 km/h (4 Bft) SW 227 0 min 0,000 mm 77 W/m 6,6 C 10,0 C 48,3 km/h (6 Bft) 99 %
21.03.2014 16:20 15,3 C 15,3 C 15,9 C 57 % 1010,4 hPa 0,0 l/m 20,3 km/h (4 Bft) S-SW 199 0 min 0,000 mm 141 W/m 6,8 C 10,1 C 35,4 km/h (5 Bft) 100 %
21.03.2014 16:30 15,1 C 15,1 C 15,3 C 58 % 1010,4 hPa 0,0 l/m 17,0 km/h (3 Bft) SW 227 0 min 0,000 mm 100 W/m 6,9 C 10,7 C 32,2 km/h (5 Bft) 100 %
21.03.2014 16:40 14,9 C 14,9 C 15,1 C 59 % 1010,5 hPa 0,0 l/m 18,5 km/h (3 Bft) SW 227 0 min 0,000 mm 44 W/m 7,0 C 10,0 C 32,2 km/h (5 Bft) 100 %
21.03.2014 16:50 14,7 C 14,7 C 14,9 C 62 % 1010,5 hPa 0,0 l/m 15,1 km/h (3 Bft) W-SW 246 0 min 0,000 mm 72 W/m 7,5 C 10,8 C 29,0 km/h (5 Bft) 100 %
21.03.2014 17:00 14,5 C 14,5 C 14,7 C 63 % 1010,5 hPa 0,0 l/m 16,0 km/h (3 Bft) SW 225 0 min 0,152 mm 46 W/m 7,5 C 10,3 C 32,2 km/h (5 Bft) 100 %
21.03.2014 17:10 14,3 C 14,3 C 14,5 C 64 % 1010,5 hPa 0,0 l/m 15,5 km/h (3 Bft) SW 214 0 min 0,000 mm 40 W/m 7,6 C 10,2 C 27,4 km/h (4 Bft) 100 %
21.03.2014 17:20 14,1 C 14,1 C 14,3 C 64 % 1010,6 hPa 0,0 l/m 17,4 km/h (3 Bft) S-SW 202 0 min 0,000 mm 26 W/m 7,4 C 9,3 C 30,6 km/h (5 Bft) 100 %
21.03.2014 17:30 13,9 C 13,9 C 14,1 C 66 % 1010,7 hPa 0,0 l/m 16,7 km/h (3 Bft) SW 229 0 min 0,000 mm 51 W/m 7,7 C 9,3 C 32,2 km/h (5 Bft) 100 %
21.03.2014 17:40 13,8 C 13,8 C 13,9 C 66 % 1010,6 hPa 0,0 l/m 17,2 km/h (3 Bft) S-SW 206 0 min 0,000 mm 33 W/m 7,6 C 9,0 C 29,0 km/h (5 Bft) 100 %
21.03.2014 17:50 13,7 C 13,7 C 13,8 C 66 % 1010,7 hPa 0,0 l/m 16,5 km/h (3 Bft) S-SW 207 0 min 0,000 mm 23 W/m 7,5 C 9,1 C 29,0 km/h (5 Bft) 100 %
21.03.2014 18:00 13,7 C 13,7 C 13,8 C 66 % 1010,7 hPa 0,0 l/m 16,5 km/h (3 Bft) SW 222 0 min 0,077 mm 16 W/m 7,5 C 9,1 C 27,4 km/h (4 Bft) 100 %
21.03.2014 18:10 13,6 C 13,6 C 13,7 C 66 % 1010,6 hPa 0,0 l/m 14,2 km/h (3 Bft) S-SW 210 0 min 0,000 mm 0 W/m 7,4 C 9,8 C 24,1 km/h (4 Bft) 100 %
21.03.2014 18:20 13,5 C 13,5 C 13,6 C 67 % 1010,7 hPa 0,0 l/m 12,8 km/h (3 Bft) S-SW 204 0 min 0,000 mm 0 W/m 7,5 C 10,2 C 24,1 km/h (4 Bft) 100 %
21.03.2014 18:30 13,4 C 13,4 C 13,5 C 68 % 1010,7 hPa 0,0 l/m 10,7 km/h (2 Bft) SW 217 0 min 0,000 mm 0 W/m 7,6 C 11,0 C 20,9 km/h (4 Bft) 100 %
21.03.2014 18:40 13,3 C 13,3 C 13,4 C 68 % 1010,8 hPa 0,0 l/m 7,4 km/h (2 Bft) SW 221 0 min 0,000 mm 0 W/m 7,5 C 12,7 C 16,1 km/h (3 Bft) 100 %
21.03.2014 18:50 13,2 C 13,2 C 13,3 C 68 % 1010,6 hPa 0,0 l/m 6,9 km/h (2 Bft) W-SW 246 0 min 0,000 mm 0 W/m 7,4 C 12,9 C 17,7 km/h (3 Bft) 100 %
21.03.2014 19:00 13,2 C 13,2 C 13,2 C 67 % 1010,6 hPa 0,0 l/m 6,4 km/h (2 Bft) W-SW 238 0 min 0,050 mm 0 W/m 7,2 C 13,2 C 19,3 km/h (3 Bft) 100 %
21.03.2014 19:10 13,3 C 13,2 C 13,3 C 67 % 1010,6 hPa 0,0 l/m 6,5 km/h (2 Bft) W-SW 252 0 min 0,000 mm 0 W/m 7,3 C 13,3 C 16,1 km/h (3 Bft) 100 %
21.03.2014 19:20 13,3 C 13,2 C 13,3 C 67 % 1010,7 hPa 0,0 l/m 8,2 km/h (2 Bft) W 269 0 min 0,000 mm 0 W/m 7,3 C 12,2 C 19,3 km/h (3 Bft) 100 %
21.03.2014 19:30 13,3 C 13,3 C 13,3 C 66 % 1010,6 hPa 0,0 l/m 9,8 km/h (2 Bft) W-SW 246 0 min 0,000 mm 0 W/m 7,1 C 11,3 C 25,7 km/h (4 Bft) 100 %
21.03.2014 19:40 13,3 C 13,3 C 13,3 C 65 % 1010,5 hPa 0,0 l/m 12,9 km/h (3 Bft) W 275 0 min 0,000 mm 0 W/m 6,9 C 9,9 C 29,0 km/h (5 Bft) 92 %
21.03.2014 19:50 13,3 C 13,3 C 13,3 C 66 % 1010,5 hPa 0,0 l/m 10,4 km/h (2 Bft) W 276 0 min 0,000 mm 0 W/m 7,1 C 11,0 C 27,4 km/h (4 Bft) 100 %
21.03.2014 20:00 13,3 C 13,3 C 13,3 C 66 % 1010,6 hPa 0,0 l/m 7,9 km/h (2 Bft) S-SW 199 0 min 0,051 mm 0 W/m 7,1 C 12,4 C 22,5 km/h (4 Bft) 100 %
21.03.2014 20:10 13,2 C 13,2 C 13,3 C 66 % 1010,6 hPa 0,0 l/m 8,2 km/h (2 Bft) W-SW 253 0 min 0,000 mm 0 W/m 7,0 C 12,1 C 25,7 km/h (4 Bft) 100 %
21.03.2014 20:20 13,1 C 13,1 C 13,2 C 67 % 1010,5 hPa 0,0 l/m 4,8 km/h (1 Bft) W-SW 240 0 min 0,000 mm 0 W/m 7,1 C 13,1 C 14,5 km/h (3 Bft) 100 %
21.03.2014 20:30 12,9 C 12,9 C 13,1 C 68 % 1010,4 hPa 0,0 l/m 8,2 km/h (2 Bft) W-SW 237 0 min 0,000 mm 0 W/m 7,1 C 11,8 C 19,3 km/h (3 Bft) 100 %
21.03.2014 20:40 12,8 C 12,8 C 12,9 C 69 % 1010,3 hPa 0,0 l/m 3,7 km/h (1 Bft) SW 232 0 min 0,000 mm 0 W/m 7,3 C 12,8 C 11,3 km/h (2 Bft) 100 %
21.03.2014 20:50 12,4 C 12,4 C 12,8 C 70 % 1010,4 hPa 0,0 l/m 2,2 km/h (1 Bft) S-SW 205 0 min 0,000 mm 0 W/m 7,1 C 12,4 C 14,5 km/h (3 Bft) 100 %
21.03.2014 21:00 12,3 C 12,3 C 12,4 C 71 % 1010,4 hPa 0,0 l/m 2,5 km/h (1 Bft) SW 216 0 min 0,026 mm 0 W/m 7,2 C 12,3 C 8,0 km/h (2 Bft) 100 %
21.03.2014 21:10 12,1 C 12,1 C 12,3 C 72 % 1010,4 hPa 0,0 l/m 1,6 km/h (1 Bft) SW 225 0 min 0,000 mm 0 W/m 7,2 C 12,1 C 8,0 km/h (2 Bft) 100 %
21.03.2014 21:20 11,9 C 11,9 C 12,1 C 73 % 1010,4 hPa 0,0 l/m 0,0 km/h (0 Bft) SW 225 0 min 0,000 mm 0 W/m 7,2 C 11,9 C 6,4 km/h (2 Bft) 100 %
21.03.2014 21:30 11,8 C 11,8 C 11,9 C 73 % 1010,3 hPa 0,0 l/m 1,6 km/h (1 Bft) S-SO 157 0 min 0,000 mm 0 W/m 7,1 C 11,8 C 9,7 km/h (2 Bft) 100 %
21.03.2014 21:40 11,8 C 11,8 C 11,9 C 73 % 1010,2 hPa 0,0 l/m 0,0 km/h (0 Bft) S-SO 157 0 min 0,000 mm 0 W/m 7,1 C 11,8 C 4,8 km/h (1 Bft) 100 %
21.03.2014 21:50 11,8 C 11,8 C 11,8 C 74 % 1010,1 hPa 0,0 l/m 0,0 km/h (0 Bft) S-SO 157 0 min 0,000 mm 0 W/m 7,3 C 11,8 C 1,6 km/h (1 Bft) 100 %
21.03.2014 22:00 11,7 C 11,6 C 11,8 C 74 % 1010,1 hPa 0,0 l/m 1,6 km/h (1 Bft) S-SO 157 0 min 0,025 mm 0 W/m 7,2 C 11,7 C 4,8 km/h (1 Bft) 100 %
21.03.2014 22:10 11,7 C 11,6 C 11,7 C 75 % 1010,2 hPa 0,0 l/m 1,6 km/h (1 Bft) S-SO 157 0 min 0,000 mm 0 W/m 7,4 C 11,7 C 6,4 km/h (2 Bft) 100 %
21.03.2014 22:20 11,6 C 11,6 C 11,7 C 76 % 1010,2 hPa 0,0 l/m 0,0 km/h (0 Bft) S-SO 157 0 min 0,000 mm 0 W/m 7,5 C 11,6 C 3,2 km/h (1 Bft) 100 %
21.03.2014 22:30 11,3 C 11,3 C 11,6 C 77 % 1010,3 hPa 0,0 l/m 0,0 km/h (0 Bft) S 180 0 min 0,000 mm 0 W/m 7,4 C 11,3 C 4,8 km/h (1 Bft) 99 %
21.03.2014 22:40 11,1 C 11,1 C 11,3 C 79 % 1010,2 hPa 0,0 l/m 0,0 km/h (0 Bft) S 180 0 min 0,000 mm 0 W/m 7,6 C 11,1 C 3,2 km/h (1 Bft) 91 %
21.03.2014 22:50 10,9 C 10,9 C 11,1 C 81 % 1010,0 hPa 0,0 l/m 1,6 km/h (1 Bft) S 180 0 min 0,000 mm 0 W/m 7,8 C 10,9 C 4,8 km/h (1 Bft) 100 %
21.03.2014 23:00 10,9 C 10,9 C 10,9 C 82 % 1009,8 hPa 0,0 l/m 0,0 km/h (0 Bft) S-SO 157 0 min 0,025 mm 0 W/m 7,9 C 10,9 C 4,8 km/h (1 Bft) 100 %
21.03.2014 23:10 10,9 C 10,9 C 10,9 C 82 % 1009,8 hPa 0,0 l/m 1,6 km/h (1 Bft) S 180 0 min 0,000 mm 0 W/m 7,9 C 10,9 C 6,4 km/h (2 Bft) 100 %
21.03.2014 23:20 10,9 C 10,8 C 10,9 C 82 % 1009,7 hPa 0,0 l/m 3,2 km/h (1 Bft) S 180 0 min 0,000 mm 0 W/m 7,9 C 10,9 C 8,0 km/h (2 Bft) 100 %
21.03.2014 23:30 10,9 C 10,8 C 10,9 C 81 % 1009,5 hPa 0,0 l/m 3,2 km/h (1 Bft) S-SW 202 0 min 0,000 mm 0 W/m 7,8 C 10,9 C 14,5 km/h (3 Bft) 100 %
21.03.2014 23:40 11,0 C 10,9 C 11,0 C 80 % 1009,3 hPa 0,0 l/m 4,8 km/h (1 Bft) S-SW 202 0 min 0,000 mm 0 W/m 7,7 C 11,0 C 11,3 km/h (2 Bft) 99 %
21.03.2014 23:50 10,9 C 10,9 C 11,0 C 80 % 1009,3 hPa 0,0 l/m 1,6 km/h (1 Bft) S-SW 202 0 min 0,000 mm 0 W/m 7,6 C 10,9 C 9,7 km/h (2 Bft) 100 %
_ Min-Zeit 06:00 06:00 06:00 14:40 23:40 - 21:20 - - - - - 00:20 07:20 21:50 22:40
Minimum _ 9,7 C 9,7 C 9,9 C 39 % 1009,3 hPa - 0,0 km/h (0 Bft) - - - - - 3,0 C 6,8 C 1,6 km/h (1 Bft) 91 %
_ Max-Zeit 13:40 13:40 13:40 23:00 00:00 00:00 12:30 - - 07:50 13:10 13:20 23:00 13:30 12:30 00:00
Maximum _ 19,9 C 19,7 C 19,9 C 82 % 1012,9 hPa 0,0 l/m 32,1 km/h
SW (5 Bft)
- - 10 min 0,559 mm 680 W/m 7,9 C 16,9 C 54,7 km/h
SW (7 Bft)
100 %
Durchschnitt _ 13,8 C 13,7 C 13,9 C 59 % 1011,0 hPa #0,0 l/m 11,7 km/h (2 Bft) S-SO - #6:50 h #3,835 mm 299 W/m 5,8 C 11,6 C 24,5 km/h (4 Bft) 100 %
PRIVATE WETTERSTATION BILLIGHEIM-ALLFELD - www.neckar-odenwald-wetter.de - Holger Sonntag